This is the latest recevied weather packets stored in our database for station/object N9BID. If no packets are shown the sender has not sent any weather packets the latest 10 day(s).
| Time | Temp. | Humidity | Pressure | Rain* | Wind** | Luminosity | Snow |
|---|---|---|---|---|---|---|---|
| 1777864934 | 11.67° C | 56% | 996.4 hPa | 0 mm | - | 0 W/m² | - |
| 1777864631 | 11.67° C | 57% | 996.5 hPa | 0 mm | - | 0 W/m² | - |
| 1777864328 | 11.67° C | 56% | 996.5 hPa | 0 mm | - | 0 W/m² | - |
| 1777864024 | 11.67° C | 56% | 996.5 hPa | 0 mm | - | 0 W/m² | - |
| 1777863721 | 12.22° C | 56% | 996.6 hPa | 0 mm | - | 0 W/m² | - |
| 1777863418 | 12.78° C | 53% | 996.5 hPa | 0 mm | - | 0 W/m² | - |
| 1777863114 | 12.78° C | 51% | 996.4 hPa | 0 mm | - | 0 W/m² | - |
| 1777862812 | 12.22° C | 52% | 996.5 hPa | 0 mm | - | 0 W/m² | - |
| 1777862508 | 11.67° C | 53% | 996.5 hPa | 0 mm | - | 0 W/m² | - |
| 1777862205 | 11.67° C | 56% | 996.4 hPa | 0 mm | - | 0 W/m² | - |
| 1777861901 | 11.11° C | 57% | 996.2 hPa | 0 mm | - | 0 W/m² | - |
| 1777861597 | 11.11° C | 57% | 996.3 hPa | 0 mm | - | 0 W/m² | - |
| 1777861293 | 11.67° C | 53% | 996.4 hPa | 0 mm | - | 0 W/m² | - |
| 1777860992 | 11.67° C | 56% | 996.5 hPa | 0 mm | - | 0 W/m² | - |
| 1777860688 | 11.67° C | 55% | 996.2 hPa | 0 mm | - | 0 W/m² | - |
| 1777860385 | 11.67° C | 56% | 996.1 hPa | 0 mm | - | 0 W/m² | - |
| 1777860081 | 12.22° C | 55% | 996 hPa | 0 mm | - | 0 W/m² | - |
| 1777859778 | 12.22° C | 54% | 995.9 hPa | 0 mm | - | 0 W/m² | - |
| 1777859474 | 12.78° C | 52% | 996 hPa | 0 mm | - | 0 W/m² | - |
| 1777859170 | 12.78° C | 54% | 996.1 hPa | 0 mm | - | 0 W/m² | - |
| 1777858867 | 12.78° C | 52% | 996.1 hPa | 0 mm | - | 0 W/m² | - |
| 1777858565 | 12.78° C | 53% | 996.2 hPa | 0 mm | - | 0 W/m² | - |
| 1777858261 | 13.33° C | 53% | 995.9 hPa | 0 mm | - | 0 W/m² | - |
| 1777857959 | 14.44° C | 48% | 996.1 hPa | 0 mm | - | 0 W/m² | - |
| 1777857657 | 14.44° C | 47% | 996.1 hPa | 0 mm | - | 0 W/m² | - |
* Rain latest hour (hover to see other rain measurements)
** Current wind speed in m/s (hover to see current wind gust speed)